Tracking 32941 objects as of 15-Jan-2026
HD Live streaming from Space Station
objects crossing your sky now

THORAD DELTA 1 DEB

Track THORAD DELTA 1 DEB now!
10-day predictions


NORAD ID: 8146
Int'l Code: 1974-089Q
Perigee: 1,306.2 km
Apogee: 1,596.2 km
Inclination: 102.0 °
Period: 114.7 minutes
Semi major axis: 7822 km
RCS: 0.2088 m2 (medium)
Launch date: November 15, 1974
Source: United States (US)
Launch site: AIR FORCE WESTERN TEST RANGE (AFWTR)

Note: This is SATELLITE DEBRIS
Your satellite tracking list
Your tracking list is empty




NASA's NSSDC Master Catalog

Two Line Element Set (TLE):
1  8146U 74089Q   26015.48541759  .00000003  00000-0  28169-3 0  9996
2  8146 101.9986  11.5278 0185357  75.7584  44.2474 12.54904397341966
Source of the keplerian elements: AFSPC